NOAA 11 (19531 NORAD) Tracking and Keplerian Element Data

This shows tracking and keplerian element data for the satellite.

Feedback or suggestion? Click here.




ElementValue
Catalog19531
NameNOAA 11
Epoch Orbit87697
Epoch Day34.90753325
Epoch Year2025
RAAN353.6753
Inclination98.5539
Eccentricity0.0010024
Argument of Perigee291.3396
Mean Anonmoly68.6709
Mean Motion14.15693044
Decay Rate2.16E-06
L11 19531U 88089A 25034.90753325 .00000216 00000+0 13146-3 0 9996
L22 19531 98.5539 353.6753 0010024 291.3396 68.6709 14.15693044876972



Live tracking and technical data element details for NOAA 11 (NORAD 19531). NOAA 11 can be tracked NOW for your location showing map with azimuth and elevation plus other details from your city location.







IsCatalogInMostPopularTable: catalog: 19531, numindb: 501
Update: records affected: 1



GetName: 19531 NOAA 11

Hit Count: updated at: Thu, 15 May 2025 10:06:55 GMT